Погода в Ване

Турция     38°30′28″N   43°22′36″E
темп.,
°C
ветер,
м/с
пор.,
м/с
влажн.,
%
обл.,
%
осадки,
мм/ч
давл.,
гПа
погр.,
м
8 мая, сб
сб800:00+7в118041 0.0 101716
03:00+7всв22770 0.0 101721
06:00+7вюв22790 0.0 101836
09:00+12всв12520 0.0 1017926
12:00+15зсз324450 0.0 10151228
15:00+16з33400 0.0 1014793
18:00+15з23413 0.0 1015405
21:00+11зюз115097 0.0 101611
9 мая, вс
вс900:00+10ю11545 0.0 101510
03:00+9ююв11576 0.0 101410
06:00+11юв225590 0.0 101511
09:00+16юз233598 0.0 1012797
12:00+20зюз472785 0.0 10102122
15:00+19з811338 0.0 10092181
18:00+14ююз3754100 1.1 1011600
21:00+11ю226699 1.1 101131
10 мая, пн
пн1000:00+10ююв226212 0.1 101013
03:00+9ююз11650 0.1 100910
06:00+8з22810 0.0 101172
09:00+10з447390 0.0 1012807
12:00+13з44574 0.0 1011888
15:00+14з44470 0.0 1010842
18:00+13з22440 0.0 1009586
21:00+9ссз00580 0.0 101110
11 мая, вт
вт1100:00+7ююв00610 0.0 101010
03:00+6ююв11620 0.0 101011
06:00+7юв11570 0.0 101116
09:00+13зюз13310 0.0 1010785
12:00+15з57300 0.0 10101339
15:00+16зюз36270 0.0 10101491
18:00+15зюз24290 0.0 1010851
21:00+10юз11430 0.0 101210
12 мая, ср
ср1200:00+8ююв11440 0.0 101310
03:00+7юв22480 0.0 101411
06:00+8юв22490 0.0 101520
09:00+15ююз26280 0.0 10131551
12:00+19з582661 0.0 10122820
15:00+19з592761 0.0 10112331
18:00+15зюз124295 0.3 1013169
21:00+11вюв32535 0.8 101517